Location: Lohe
(52.7667°N, 9.8333°E)
Time: 16:09:42
(UTC+00:00)

Daily predictions for brighter satellites

Satellite Brightness Start Highest point End
(mag) Time Altitude Azimuth Time Altitude Azimuth Time Altitude Azimuth
CZ-4C R/B 2.4 17:02:45 10° WSW 17:07:13 62° NW 17:13:07 10° NE
USA 234 3.5 17:01:13 10° ESE 17:07:48 79° SSW 17:14:24 10° WNW
UNK 3.9 17:10:39 10° NNE 17:15:16 80° WNW 17:19:51 10° SSW
Resurs 01 Rocket 2.4 17:11:28 10° SE 17:15:20 31° ENE 17:19:14 10° N
CZ-4 R/B 4.3 17:12:20 10° SSE 17:16:18 79° ENE 17:20:17 10° NNW
Cosmos 2058 4.2 17:15:22 10° SE 17:17:58 17° E 17:20:35 10° NE
SL-16 R/B 3.4 17:12:02 10° N 17:18:04 54° WNW 17:24:04 10° SW
Tiangong 0.7 17:17:28 10° SSW 17:18:29 11° S 17:19:30 10° SSE
Cosmos 2237 Rocket 3.3 17:13:42 10° NW 17:19:12 51° WSW 17:24:40 10° S
CZ-2D R/B 3.6 17:17:06 10° S 17:20:05 54° W 17:23:05 10° NNW
NOSS 3-3 (A) 4.2 17:17:47 10° WSW 17:23:11 65° NW 17:29:48 10° NE
Cosmos 773 Rocket 4.1 17:19:28 10° S 17:24:40 63° ESE 17:29:53 10° NNE
Cosmos 1570 Rocket 4.0 17:21:02 10° SSW 17:26:17 79° ESE 17:31:33 10° NNE
Cosmos 1544 Rocket 4.2 17:23:04 10° N 17:27:01 32° ENE 17:30:58 10° SE
Cosmos 1862 4.4 17:25:22 10° SE 17:27:53 18° E 17:30:24 10° NE
YAOGAN 1 2.5 17:24:09 10° SSE 17:28:24 74° ENE 17:32:40 10° N
Cosmos 2344 4.1 17:22:12 10° S 17:29:02 34° ESE 17:35:22 10° NE
Cosmos 1455 Rocket 3.2 17:26:56 10° NNW 17:31:15 79° W 17:35:33 10° S
Cosmos 1975 Rocket 3.2 17:33:43 10° S 17:37:54 50° E 17:42:05 10° NNE
Meteor 1-31 Rocket 4.1 17:39:42 14° E 17:41:00 17° ENE 17:43:19 10° NNE
Cosmos 2084 4.5 17:37:43 10° S 17:41:11 26° ESE 17:43:47 14° ENE
SPOT 5 4.0 17:37:21 10° ESE 17:41:27 26° ENE 17:45:42 10° N
ARIANE 6 FM1 Upper Stage 3.0 17:38:48 10° NW 17:42:44 64° SW 17:46:40 10° SE
Spot 4 Rocket 4.0 17:38:13 10° SSE 17:43:19 81° ENE 17:48:28 10° NNW
Cosmos 2227 Rocket 2.2 17:40:12 10° SSW 17:45:46 65° ESE 17:51:24 10° NE
ARIANE 5 R/B 4.1 17:41:17 10° SSW 17:46:02 40° W 17:50:46 10° NNW
NOAA 6 4.0 17:42:34 10° SSE 17:47:42 74° ENE 17:52:53 10° NNW
SL-16 R/B 2.2 17:43:13 10° NNW 17:48:55 89° WSW 17:54:35 10° SSE
SJ-6B 3.0 17:45:50 10° SE 17:49:01 36° ENE 17:52:13 10° N
Terra 3.5 17:50:53 14° ENE 17:51:42 14° NE 17:54:13 10° NNE
Cosmos 2208 Rocket 4.1 17:48:36 10° SSW 17:53:53 87° WNW 17:59:18 10° NNE
Cosmos 44 Rocket 3.5 17:51:17 10° SW 17:56:16 76° NW 18:01:25 10° NE
SL-19 R/B 4.3 17:50:57 10° SSE 17:57:00 83° ENE 18:02:44 10° NNW
Meteor 2-17 Rocket 4.4 17:51:43 10° S 17:57:46 82° E 18:03:50 10° NNE
Lacrosse 5 rocket 1.6 17:54:32 10° WNW 17:57:57 44° N 17:59:58 21° ENE
ATLAS 2AS CENTAUR R/B 3.7 17:53:50 10° WNW 17:59:59 33° N 18:04:58 14° ENE
CZ-4 R/B 2.4 18:02:22 22° ENE 18:02:55 23° ENE 18:05:54 10° N
CZ-2D R/B 4.0 18:00:04 10° S 18:03:59 59° WSW 18:08:03 10° NNW
Cosmos 1816 Rocket 4.4 17:59:41 10° S 18:05:49 68° E 18:12:03 10° NNE
CSL-04 Rocket 4.0 18:05:47 10° SE 18:10:43 42° ENE 18:15:41 10° N
USA 267 3.2 18:06:30 15° ENE 18:12:06 80° SSE 18:18:41 10° WSW
ERS-1 Rocket 4.1 18:11:22 22° ENE 18:12:29 24° ENE 18:16:26 10° N
Cosmos 2034 Rocket 3.9 18:08:23 10° N 18:14:36 82° E 18:20:50 10° SSE
SeaSat 1 3.8 18:10:36 10° S 18:15:13 41° WSW 18:19:52 10° NW
PSLV R/B 4.0 18:11:51 10° S 18:15:54 61° WSW 18:19:57 10° NNW
Cosmos 1933 3.4 18:12:40 10° N 18:16:23 45° ENE 18:18:47 19° SE
CZ-4B R/B 4.0 18:15:23 24° E 18:17:06 28° ENE 18:21:33 10° N
Cosmos 1634 Rocket 4.1 18:10:57 10° N 18:17:08 54° ENE 18:23:15 10° SSE
CARTOSAT-1 4.1 18:14:11 10° S 18:18:19 59° W 18:22:30 10° NNW
Cosmos 44 4.5 18:13:37 10° NW 18:18:25 33° NNE 18:20:43 23° ENE
Cosmos 2228 4.1 18:14:25 10° NNW 18:18:27 46° W 18:22:28 10° SSW
Iridium 4 Rocket 3.9 18:14:32 10° NNE 18:18:36 30° ENE 18:19:16 28° E
COSMO-SKYMED 1 2.7 18:17:11 10° N 18:21:19 71° WNW 18:25:23 10° SSW
Gbstr 26 Del rocket 4.4 18:17:10 10° SW 18:23:48 59° SSE 18:28:25 25° E
Cosmos 1726 Rocket 4.3 18:20:18 10° N 18:24:28 33° ENE 18:25:17 31° E
Cosmos 2084 Rocket 4.3 18:24:24 10° NW 18:28:16 33° NNE 18:29:16 29° NE
Cosmos 2082 Rocket 4.4 18:27:03 10° NNW 18:29:33 13° N 18:32:03 10° NE
Cosmos 2297 Rocket 3.5 18:24:53 10° WSW 18:30:09 38° NW 18:35:27 10° NNE
MINOTAUR IV R/B 4.4 18:25:59 10° SSW 18:30:24 78° ESE 18:34:20 13° NNE
Cosmos 1943 3.1 18:25:14 10° NNW 18:30:59 79° ENE 18:35:25 17° SE
Cosmos 1346 Rocket 3.3 18:28:35 10° SSW 18:32:09 55° WNW 18:35:46 10° N
Cosmos 2279 Rocket 4.1 18:26:14 10° N 18:32:14 49° ENE 18:36:48 17° SE
ATLAS CENTAUR R/B 0.4 18:36:00 10° NW 18:38:38 73° WNW 18:38:38 73° WNW
RESURS DK-1 2.2 18:36:14 10° NW 18:40:13 82° WSW 18:41:54 33° SSE
Cosmos 2098 Rocket 2.2 18:37:51 10° N 18:40:59 89° E 18:42:25 33° S
Cosmos 1536 Rocket 3.4 18:40:47 10° S 18:45:06 66° E 18:49:29 10° NNE
CZ-4B R/B 3.6 18:45:48 33° SSE 18:47:29 85° ENE 18:51:17 10° NNW
Cosmos 2263 Rocket 2.3 18:43:40 10° SW 18:49:22 77° WNW 18:55:06 10° NNE
Cosmos 1606 Rocket 3.4 18:45:36 10° N 18:49:57 69° ENE 18:51:12 44° SE
Meteor 2-3 Rocket 3.9 18:46:07 10° SSE 18:51:30 46° E 18:56:58 10° NNE
Resurs 01 Rocket 3.1 18:47:30 10° SSW 18:51:37 38° W 18:55:47 10° NNW
Cosmos 1603 3.7 18:46:14 10° NNW 18:51:49 60° NE 18:53:31 42° ESE
Cosmos 972 4.3 18:47:15 10° NNW 18:52:10 70° ENE 18:53:57 40° SE
Cosmos 2219 3.1 18:46:44 10° SSW 18:52:29 79° ESE 18:58:04 11° NNE
Cosmos 2058 3.6 18:49:53 10° SSW 18:53:40 51° WNW 18:57:30 10° N
CZ-4C R/B 3.6 18:51:55 10° WNW 18:56:34 32° N 19:00:15 18° NE
Cosmos 1538 Rocket 3.9 18:51:25 10° S 18:56:42 65° ESE 19:01:01 16° NNE
Cosmos 1862 4.3 18:59:06 10° SW 19:02:30 40° WNW 19:05:55 10° N
Cosmos 2056 Rocket 3.6 19:00:52 10° NNW 19:06:03 54° ENE 19:06:22 53° ENE
Meteor 2-2 Rocket 4.4 19:01:48 10° N 19:07:39 54° ENE 19:08:17 51° E
Cosmos 1833 Rocket 3.8 19:04:04 10° NNW 19:08:54 28° NE 19:08:54 28° NE
IRS-1A Rocket 4.4 19:11:55 50° ENE 19:12:05 50° ENE 19:17:31 10° N
Meteor 1-31 Rocket 3.3 19:13:41 48° WSW 19:13:47 48° W 19:17:09 10° NNW
Okean O Rocket 3.2 19:15:59 23° NNE 19:15:59 23° NNE 19:17:56 10° N
MetOp-B 4.0 19:14:23 62° ESE 19:14:57 67° ENE 19:20:18 10° NNW
Okean-O 4.3 19:19:29 22° NNE 19:19:29 22° NNE 19:21:17 10° N
Cosmos 2082 3.7 19:11:48 10° SSW 19:17:32 86° WNW 19:21:37 20° NNE
SPOT 5 3.3 19:15:25 19° S 19:18:58 64° WSW 19:24:10 10° NNW
Cosmos 2084 3.7 19:15:23 10° WSW 19:19:31 63° NW 19:19:31 63° NW
Meteor 2-12 Rocket 4.5 19:19:16 10° SSW 19:25:23 80° WNW 19:31:35 10° N
Terra 2.2 19:29:30 53° N 19:29:30 53° N 19:33:11 10° NNW
MOS 1 4.2 19:28:15 56° SSE 19:29:34 89° WSW 19:35:18 10° NNW
Cosmos 2227 Rocket 3.8 19:25:10 10° WSW 19:30:14 33° NW 19:35:20 10° NNE
PAYLOAD B 4.3 19:29:23 43° S 19:31:16 77° WSW 19:36:54 10° NNW
Cosmos 1624 Rocket 3.9 19:26:46 10° NNW 19:31:45 75° NNE 19:31:45 75° NNE
COBE Rocket 3.8 19:28:06 10° N 19:32:55 77° WNW 19:37:34 10° SSW
MOS 1-B 4.4 19:33:50 60° NE 19:33:50 60° NE 19:39:08 10° NNW
Lacrosse 5 rocket 2.8 19:31:22 10° WNW 19:33:23 31° WNW 19:33:23 31° WNW
ADEOS 3.5 19:34:56 77° SSW 19:35:16 83° WSW 19:40:31 10° NNW
CZ-4 R/B 2.6 19:37:23 37° WNW 19:37:23 37° WNW 19:40:22 10° NNW
Cosmos 1371 Rocket 4.0 19:34:39 10° NNW 19:39:17 71° NNW 19:39:17 71° NNW
Cosmos 2344 3.6 19:35:22 10° WSW 19:42:49 70° NW 19:46:52 29° NE
ERS-1 Rocket 3.3 19:51:12 63° WNW 19:51:12 63° WNW 19:55:48 10° NNW
ATLAS 2AS CENTAUR R/B 2.9 19:45:36 10° NW 19:52:15 52° NNE 19:52:23 52° NE
USA 267 3.4 19:53:51 55° NE 19:55:05 66° N 20:01:34 10° W
Cosmos 1844 Rocket 4.4 19:50:54 10° SSW 19:52:35 20° SSW 19:52:35 20° SSW
CZ-4B R/B 3.5 19:57:14 59° WSW 19:57:22 59° WSW 20:02:37 10° NNW
Cosmos 909 Rocket 4.2 19:53:10 10° NW 19:59:21 70° NNE 19:59:21 70° NNE
Cosmos 44 4.0 19:54:45 10° NW 19:59:02 58° NW 19:59:02 58° NW
Gbstr 26 Del rocket 4.2 20:03:16 10° W 20:10:26 83° SSW 20:10:26 83° SSW
Cosmos 2082 Rocket 4.0 20:11:10 10° NNW 20:14:12 22° N 20:14:12 22° N
Cosmos 2263 Rocket 4.3 20:29:43 10° W 20:34:14 23° NNW 20:37:46 14° N
CZ-4C R/B 3.7 20:40:56 10° NW 20:45:12 34° N 20:45:12 34° N
Okean O Rocket 4.4 20:53:13 15° NW 20:53:13 15° NW 20:54:05 10° NNW
Cosmos 1833 Rocket 4.3 20:47:47 10° NNW 20:50:35 30° NW 20:50:35 30° NW
ATLAS 2AS CENTAUR R/B 4.3 21:36:42 10° NW 21:39:48 28° WNW 21:39:48 28° WNW
